User: anonymous   Login
Location: Unspecified
(0.0000°N, 0.0000°E)
Time: 21:50:13
(UTC+00:00)
Language:

JAS-1B - Orbit

View from above orbital plane
View from above orbital plane
View from above satellite
View from above satellite

Ground track
Ground track

The orbit data is extracted from the following two-line orbital elements,

1 20480U 90013C   18145.78131203 -.00000035  00000-0  64485-7 0  9994
2 20480  99.0611 220.2084 0539965 335.5353  22.0966 12.83418067325661
Epoch (UTC): 25 May 2018 18:45:05
Eccentricity: 0.0539965
inclination: 99.0611°
perigee height: 911 km
apogee height: 1744 km
right ascension of ascending node: 220.2084°
argument of perigee: 335.5353°
revolutions per day: 12.83418067
mean anomaly at epoch: 22.0966°
orbit number at epoch: 32566

The dashed part of the orbit path shows where the satellite is in the earth's shadow,  

DLR